Olive Branch, MS

10:40 AM CDT on June 23, 2017 (GMT -0500)
Olive Branch

Weather History for KOLV - October, 2013

Change the Weather History Date:

Tuesday, October 8, 2013

  Actual Average (KMEM) Record (KMEM)
Temperature  
Mean Temperature 58 °F -  
Max Temperature 71 °F 75 °F 95 °F (2007)
Min Temperature 46 °F 54 °F 36 °F (2000)
Degree Days  
Heating Degree Days 6    
Growing Degree Days 8 (Base 50)    
Moisture  
Dew Point 51 °F    
Average Humidity 87    
Maximum Humidity 100    
Minimum Humidity 43    
Precipitation  
Precipitation 0.00 in - - ()
Sea Level Pressure  
Sea Level Pressure 30.11 in    
Wind  
Wind Speed 4 mph (NE)    
Max Wind Speed 12 mph    
Max Gust Speed -    
Visibility 10 miles    
Events      
Averages and records for this station are not official NWS values.
T = Trace of Precipitation, MM = Missing Value Source: NWS Daily Summary

Daily Weather History Graph

Daily Weather History Graph

Search for Another Location

Airport or City:

Trip Planner

Search our weather history database for the weather conditions in past years. The results will help you decide how hot, cold, wet, or windy it might be!

Date:

Astronomy

Oct. 08, 2013 Rise Set
Actual Time 6:59 AM CDT 6:33 PM CDT
Civil Twilight 6:34 AM CDT 6:58 PM CDT
Nautical Twilight 6:04 AM CDT 7:27 PM CDT
Astronomical Twilight 5:35 AM CDT 7:56 PM CDT
Moon 10:45 AM CDT (10/8) 9:18 PM CDT (10/8)
Length of Visible Light 12h 24m
Length of Day
11h 33m
Waxing Crescent, 16% of the Moon is Illuminated
Oct 8
Waxing Crescent
Oct 11
First Quarter
Oct 18
Full
Oct 26
Last Quarter
Nov 3
New

Hourly Weather History & Observations

Time (CDT) Temp. Windchill Dew Point Humidity Pressure Visibility Wind Dir Wind Speed Gust Speed Precip Events Conditions
12:15 AM 53.6 °F - 51.8 °F 94% 30.11 in 10.0 mi NE 5.8 mph - 0.00 in   Clear
12:35 AM 51.8 °F - 51.8 °F 100% 30.12 in 9.0 mi Calm Calm - 0.00 in   Clear
12:55 AM 51.8 °F - 51.8 °F 100% 30.11 in 10.0 mi Calm Calm - 0.00 in   Clear
1:15 AM 50.0 °F - 50.0 °F 100% 30.12 in 10.0 mi Calm Calm - 0.00 in   Clear
1:35 AM 50.0 °F - 50.0 °F 100% 30.12 in 10.0 mi NNE 4.6 mph - 0.00 in   Clear
1:55 AM 48.2 °F - 48.2 °F 100% 30.12 in 10.0 mi Calm Calm - 0.00 in   Clear
2:15 AM 48.2 °F - 48.2 °F 100% 30.12 in 10.0 mi Calm Calm - 0.00 in   Clear
2:35 AM 51.8 °F - 51.8 °F 100% 30.12 in 10.0 mi NE 5.8 mph - 0.00 in   Clear
2:55 AM 50.0 °F - 50.0 °F 100% 30.12 in 10.0 mi Calm Calm - 0.00 in   Clear
3:15 AM 50.0 °F - 50.0 °F 100% 30.12 in 10.0 mi Calm Calm - 0.00 in   Clear
3:35 AM 48.2 °F - 48.2 °F 100% 30.12 in 10.0 mi NNE 3.5 mph - 0.00 in   Clear
3:55 AM 48.2 °F - 48.2 °F 100% 30.12 in 10.0 mi Calm Calm - 0.00 in   Clear
4:15 AM 48.2 °F - 48.2 °F 100% 30.13 in 10.0 mi NNE 3.5 mph - 0.00 in   Clear
4:35 AM 48.2 °F - 48.2 °F 100% 30.13 in 9.0 mi NNE 3.5 mph - 0.00 in   Clear
4:55 AM 46.4 °F 44.3 °F 46.4 °F 100% 30.13 in 10.0 mi North 4.6 mph - 0.00 in   Clear
5:15 AM 48.2 °F - 48.2 °F 100% 30.13 in 10.0 mi Calm Calm - 0.00 in   Clear
5:35 AM 46.4 °F - 46.4 °F 100% 30.13 in 9.0 mi Calm Calm - 0.00 in   Clear
5:55 AM 46.4 °F - 46.4 °F 100% 30.13 in 10.0 mi Calm Calm - 0.00 in   Clear
6:15 AM 46.4 °F 45.2 °F 46.4 °F 100% 30.14 in 10.0 mi NNE 3.5 mph - 0.00 in   Clear
6:35 AM 46.4 °F 45.2 °F 46.4 °F 100% 30.14 in 10.0 mi NNE 3.5 mph - 0.00 in   Clear
6:50 AM 46.4 °F - 46.4 °F 100% 30.14 in 10.0 mi Calm Calm - N/A   Clear
7:50 AM 48.2 °F - 48.2 °F 100% 30.14 in 10.0 mi NNE 5.8 mph - N/A   Clear
8:50 AM 53.6 °F - 53.6 °F 100% 30.16 in 10.0 mi NE 5.8 mph - N/A   Clear
9:50 AM 57.2 °F - 51.8 °F 82% 30.16 in 10.0 mi ENE 10.4 mph - N/A   Clear
10:50 AM 60.8 °F - 48.2 °F 63% 30.15 in 10.0 mi NE 9.2 mph - N/A   Clear
11:50 AM 64.4 °F - 48.2 °F 56% 30.14 in 10.0 mi NE 11.5 mph - N/A   Clear
12:50 PM 66.2 °F - 48.2 °F 52% 30.11 in 10.0 mi NE 5.8 mph - N/A   Clear
1:50 PM 69.8 °F - 48.2 °F 46% 30.09 in 10.0 mi NE 9.2 mph - N/A   Partly Cloudy
2:50 PM 71.6 °F - 48.2 °F 43% 30.08 in 10.0 mi NNE 9.2 mph - N/A   Partly Cloudy
3:50 PM 71.6 °F - 50.0 °F 46% 30.08 in 10.0 mi ENE 9.2 mph - N/A   Partly Cloudy
4:50 PM 71.6 °F - 51.8 °F 50% 30.07 in 10.0 mi NE 9.2 mph - N/A   Clear
5:50 PM 69.8 °F - 53.6 °F 56% 30.07 in 10.0 mi NE 9.2 mph - N/A   Clear
6:50 PM 64.4 °F - 53.6 °F 68% 30.07 in 10.0 mi Calm Calm - N/A   Partly Cloudy
7:50 PM 62.6 °F - 57.2 °F 82% 30.10 in 10.0 mi Calm Calm - N/A   Overcast
8:55 PM 62.6 °F - 57.2 °F 82% 30.09 in 10.0 mi NE 5.8 mph - 0.00 in   Mostly Cloudy
9:15 PM 62.6 °F - 55.4 °F 77% 30.10 in 9.0 mi Calm Calm - 0.00 in   Mostly Cloudy
9:35 PM 60.8 °F - 55.4 °F 82% 30.10 in 10.0 mi NE 3.5 mph - 0.00 in   Scattered Clouds
9:55 PM 59.0 °F - 55.4 °F 88% 30.10 in 9.0 mi NE 6.9 mph - 0.00 in   Partly Cloudy
10:15 PM 59.0 °F - 55.4 °F 88% 30.10 in 10.0 mi NE 5.8 mph - 0.00 in   Clear
10:35 PM 59.0 °F - 55.4 °F 88% 30.10 in 10.0 mi NE 4.6 mph - 0.00 in   Clear
10:55 PM 59.0 °F - 55.4 °F 88% 30.10 in 10.0 mi NE 5.8 mph - 0.00 in   Clear
11:15 PM 59.0 °F - 55.4 °F 88% 30.09 in 9.0 mi NE 5.8 mph - 0.00 in   Clear
11:35 PM 57.2 °F - 55.4 °F 94% 30.09 in 10.0 mi NE 4.6 mph - 0.00 in   Clear
11:55 PM 57.2 °F - 55.4 °F 94% 30.09 in 10.0 mi NE 5.8 mph - 0.00 in   Clear